Darstellungsparameter: Aktuell verwendete Einstellungen:
Skalierung der Graphiken ... ?
xyx+y,   Skalierungsfaktor:      Skalierung: Modus: x, Faktor: 1
Darstellungszeitraum ... ?
Vom - - bis: - -   Zeitraum: 22.04.2021 - 23.04.2021
Min/Max/Avg-Anzeige ... ?
Zeige MMA aktuell
Zeige MMA Monat
Zeige MMA alles
Zeige --A aktuell
Zeige --A Monat
Zeige --A alles
Keine MMA-Anzeige
MMA:
Keine MMA-Graphiken
MMA-Basis: 22.04.2021 - 23.04.2021
Quicknavigation für Darstellung... ?
Tage:      1T, 2T, 3T, 5T -1T -2T -3T -5T +1T +2T +3T +5T
Wochen: 1W, 2W, 3W -1W -2W -3W +1W +2W +3W
Monate: 1M, 3M, 6M -1M -3M -6M +1M +3M +6M
Jahre:    1J, 3J, 5J, 10J -1J -3J -5J -10J +1J +3J +5J +10J
Nutze für die Darstellung ... ?
Originaldaten oder Mittelwerte auf ...
Stundenbasis Tagesbasis Wochenbasis
Monatsbasis Jahresbasis      Datenbasis: Original-Daten
Darstellen als:
Statistik (Auto) Statistik J:M      Darstellung:

Der gewünschte Datumsbereich war nicht gültig/verfügbar und wurde korrigiert....
Das angegebene Enddatum (04.03.2022 23:59:59) liegt in der Zukunft.
Das angegebene Startdatum (04.03.2022 00:00:00) liegt in der Zukunft.


Zur Graphik,    zurück zur Übersicht aller Sensoren.
 
Tabellarische Datenbersicht: ?
 
Sensor: Nr:Datum:Temp:Feuchte:Taupunkt:
Aussen-T/F 1 22-04-2021 02:00:00 8.7 C 75 % 4.52 C
2 22-04-2021 02:05:00 8.6 C 75 % 4.43 C
3 22-04-2021 02:10:00 8.4 C 75 % 4.23 C
4 22-04-2021 02:15:00 8.3 C 76 % 4.33 C
5 22-04-2021 02:20:00 8.2 C 76 % 4.23 C
6 22-04-2021 02:25:00 8.1 C 76 % 4.13 C
7 22-04-2021 02:30:00 8.1 C 75 % 3.94 C
8 22-04-2021 02:35:00 8 C 74 % 3.66 C
9 22-04-2021 02:40:00 7.9 C 74 % 3.56 C
10 22-04-2021 02:45:00 7.9 C 73 % 3.37 C
11 22-04-2021 02:50:00 7.8 C 73 % 3.27 C
12 22-04-2021 02:55:00 7.7 C 73 % 3.18 C
13 22-04-2021 03:00:00 7.6 C 73 % 3.08 C
14 22-04-2021 03:05:00 7.6 C 73 % 3.08 C
15 22-04-2021 03:10:00 7.4 C 73 % 2.89 C
16 22-04-2021 03:15:00 7.3 C 73 % 2.79 C
17 22-04-2021 03:20:00 7.2 C 73 % 2.69 C
18 22-04-2021 03:25:00 7.1 C 73 % 2.6 C
19 22-04-2021 03:30:00 7 C 72 % 2.31 C
20 22-04-2021 03:35:00 6.9 C 72 % 2.21 C
21 22-04-2021 03:40:00 6.8 C 72 % 2.12 C
22 22-04-2021 03:45:00 6.7 C 72 % 2.02 C
23 22-04-2021 03:50:00 6.6 C 72 % 1.92 C
24 22-04-2021 03:55:00 6.5 C 73 % 2.02 C
25 22-04-2021 04:00:00 6.4 C 73 % 1.92 C
Sensor: Nr:Datum:Temp:Feuchte:Taupunkt:
Aussen-T/F 26 22-04-2021 04:05:00 6.3 C 73 % 1.83 C
27 22-04-2021 04:10:00 6.2 C 73 % 1.73 C
28 22-04-2021 04:15:00 5.9 C 74 % 1.63 C
29 22-04-2021 04:20:00 5.8 C 74 % 1.53 C
30 22-04-2021 04:25:00 5.7 C 74 % 1.44 C
31 22-04-2021 04:30:00 5.7 C 74 % 1.44 C
32 22-04-2021 04:35:00 5.6 C 74 % 1.34 C
33 22-04-2021 04:40:00 5.6 C 74 % 1.34 C
34 22-04-2021 04:45:00 5.5 C 74 % 1.24 C
35 22-04-2021 04:50:00 5.3 C 75 % 1.24 C
36 22-04-2021 04:55:00 5.2 C 75 % 1.14 C
37 22-04-2021 05:00:00 4.9 C 76 % 1.03 C
38 22-04-2021 05:05:00 4.7 C 77 % 1.02 C
39 22-04-2021 05:10:00 4.6 C 78 % 1.1 C
40 22-04-2021 05:15:00 4.5 C 78 % 1.01 C
41 22-04-2021 05:20:00 4.4 C 79 % 1.09 C
42 22-04-2021 05:25:00 4.3 C 79 % 0.99 C
43 22-04-2021 05:30:00 4.1 C 79 % 0.79 C
44 22-04-2021 05:35:00 3.9 C 80 % 0.77 C
45 22-04-2021 05:40:00 3.7 C 80 % 0.58 C
46 22-04-2021 05:45:00 3.6 C 81 % 0.65 C
47 22-04-2021 05:50:00 3.4 C 82 % 0.63 C
48 22-04-2021 05:55:00 3.3 C 82 % 0.53 C
49 22-04-2021 06:00:00 3.3 C 82 % 0.53 C
50 22-04-2021 06:05:00 3.2 C 82 % 0.43 C
Sensor: Nr:Datum:Temp:Feuchte:Taupunkt:
Aussen-T/F 51 22-04-2021 06:10:00 3.1 C 82 % 0.33 C
52 22-04-2021 06:15:00 3 C 83 % 0.4 C
53 22-04-2021 06:20:00 2.9 C 83 % 0.31 C
54 22-04-2021 06:25:00 2.8 C 83 % 0.21 C
55 22-04-2021 06:30:00 2.7 C 84 % 0.27 C
56 22-04-2021 06:35:00 2.7 C 84 % 0.27 C
57 22-04-2021 06:40:00 2.7 C 84 % 0.27 C
58 22-04-2021 06:45:00 2.7 C 85 % 0.44 C
59 22-04-2021 06:50:00 2.7 C 84 % 0.27 C
60 22-04-2021 06:55:00 2.6 C 85 % 0.34 C
61 22-04-2021 07:00:00 2.5 C 85 % 0.24 C
62 22-04-2021 07:05:00 2.5 C 85 % 0.24 C
63 22-04-2021 07:10:00 2.4 C 85 % 0.14 C
64 22-04-2021 07:15:00 2.5 C 85 % 0.24 C
65 22-04-2021 07:20:00 2.6 C 85 % 0.34 C
66 22-04-2021 07:25:00 2.7 C 85 % 0.44 C
67 22-04-2021 07:30:00 2.8 C 85 % 0.54 C
68 22-04-2021 07:35:00 2.9 C 85 % 0.63 C
69 22-04-2021 07:40:00 2.9 C 84 % 0.47 C
70 22-04-2021 07:45:00 3.1 C 85 % 0.83 C
71 22-04-2021 07:50:00 3.1 C 85 % 0.83 C
72 22-04-2021 07:55:00 3.2 C 85 % 0.93 C
73 22-04-2021 08:00:00 3.3 C 84 % 0.86 C
74 22-04-2021 08:05:00 3.6 C 83 % 0.99 C
75 22-04-2021 08:10:00 3.8 C 81 % 0.85 C
Sensor: Nr:Datum:Temp:Feuchte:Taupunkt:
Aussen-T/F 76 22-04-2021 08:15:00 4.2 C 79 % 0.89 C
77 22-04-2021 08:20:00 4.3 C 78 % 0.81 C
78 22-04-2021 08:25:00 4.5 C 77 % 0.83 C
79 22-04-2021 08:30:00 4.7 C 76 % 0.84 C
80 22-04-2021 08:35:00 4.8 C 75 % 0.75 C
81 22-04-2021 08:40:00 4.9 C 74 % 0.67 C
82 22-04-2021 08:45:00 4.9 C 73 % 0.48 C
83 22-04-2021 08:50:00 5 C 73 % 0.57 C
84 22-04-2021 08:55:00 5.1 C 73 % 0.67 C
85 22-04-2021 09:00:00 5.1 C 73 % 0.67 C
86 22-04-2021 09:05:00 5.2 C 73 % 0.77 C
87 22-04-2021 09:10:00 5.2 C 72 % 0.58 C
88 22-04-2021 09:15:00 5.3 C 72 % 0.67 C
89 22-04-2021 09:20:00 5.4 C 71 % 0.58 C
90 22-04-2021 09:25:00 5.6 C 71 % 0.77 C
91 22-04-2021 09:30:00 5.7 C 71 % 0.86 C
92 22-04-2021 09:35:00 5.9 C 69 % 0.66 C
93 22-04-2021 09:40:00 6.1 C 68 % 0.65 C
94 22-04-2021 09:45:00 6.2 C 68 % 0.75 C
95 22-04-2021 09:50:00 6.3 C 67 % 0.64 C
96 22-04-2021 09:55:00 6.4 C 67 % 0.73 C
97 22-04-2021 10:00:00 6.5 C 66 % 0.62 C
98 22-04-2021 10:05:00 6.6 C 67 % 0.92 C
99 22-04-2021 10:10:00 6.6 C 66 % 0.71 C
100 22-04-2021 10:15:00 6.7 C 66 % 0.81 C
Sensor: Nr:Datum:Temp:Feuchte:Taupunkt:
Aussen-T/F 101 22-04-2021 10:20:00 6.8 C 65 % 0.69 C
102 22-04-2021 10:25:00 6.9 C 65 % 0.79 C
103 22-04-2021 10:30:00 7 C 65 % 0.88 C
104 22-04-2021 10:35:00 7.1 C 64 % 0.76 C
105 22-04-2021 10:40:00 7.2 C 63 % 0.64 C
106 22-04-2021 10:45:00 7.2 C 62 % 0.42 C
107 22-04-2021 10:50:00 7.3 C 61 % 0.29 C
108 22-04-2021 10:55:00 7.4 C 60 % 0.16 C
109 22-04-2021 11:00:00 7.5 C 59 % 0.02 C
110 22-04-2021 11:05:00 7.6 C 60 % 0.35 C
111 22-04-2021 11:10:00 7.7 C 60 % 0.44 C
112 22-04-2021 11:15:00 7.8 C 60 % 0.53 C
113 22-04-2021 11:20:00 7.9 C 60 % 0.63 C
114 22-04-2021 11:25:00 7.9 C 61 % 0.86 C
115 22-04-2021 11:30:00 8.1 C 60 % 0.82 C
116 22-04-2021 11:35:00 8.2 C 60 % 0.91 C
117 22-04-2021 11:40:00 8.3 C 58 % 0.54 C
118 22-04-2021 11:45:00 8.5 C 58 % 0.72 C
119 22-04-2021 11:50:00 8.6 C 58 % 0.82 C
120 22-04-2021 11:55:00 8.7 C 58 % 0.91 C
121 22-04-2021 12:00:00 8.8 C 57 % 0.76 C
122 22-04-2021 12:05:00 8.9 C 57 % 0.86 C
123 22-04-2021 12:10:00 9.2 C 57 % 1.14 C

Legende:
   Min
   Max


Maximal/Minimal-Werte vom 22.04.2021 - 23.04.2021

Sensor Min Max Avg
Temp
(Aussen-T/F)
2.4 °C
22-04-2021  07:10:00
9.2 °C
22-04-2021  12:10:00
5.67 °C
Feuchte
(Aussen-T/F)
57 %
22-04-2021  12:00:00
85 %
22-04-2021  06:45:00
73.54 %
Taupunkt
(Aussen-T/F)
0.02 C
22-04-2021  11:00:00
4.52 C
22-04-2021  02:00:00
1.21 C

Die Daten stammen von einer Davis Vantage Pro 2 Wetter-Station und werden unter Linux mit der Software wview2wettercgi und aufbereitet. Alle Angaben erfolgen ohne Gewähr für ihre Vollständigkeit oder Richtigkeit.
Kontakt: Rainer Krienke krienke@uni-koblenz.de . Meine Webseiten an der Uni Koblenz oder privat.
Version: $Revision: 0.78 $